sat.trackr.live / text

‹ back to catalog

ONEWEB-0396

NORAD 50476 · 2021-132H

PAYLOAD ACTIVE UNKNOWN

§ Identity

Operator
Country
UK
Launch date
2021-12-27
Launch site
TYMSC
Launch vehicle
Mass (kg)
RCS (m²)

Purposes: comms

External: N2YO · Heavens-Above · Gunter

§ Orbital elements

Epoch: 2026-05-25T00:35:52.167840Z

Period
109.20 min
Inclination
87.9170°
Eccentricity
0.0002022
Mean motion
13.18688138 rev/d
Perigee alt
1,188.2 km
Apogee alt
1,191.3 km
Semi-major
7,567.9 km
B*
2.2544e-5
RAAN
340.0638°
Arg perigee
88.6536°
Mean anomaly
271.4828°
Rev number
21,858

§ Raw data

ONEWEB-03961 50476U 21132H   26145.02490935  .00000022  00000+0  22544-4 0  99952 50476  87.9170 340.0638 0002022  88.6536 271.4828 13.18688138218585

JSON: /api/v1/satellites/50476 · /tle

For live sub-satellite position, see the globe view (requires WebGL).

§ Visibility from observer

Set your observer location to see the next 7 days of passes ≥ 10°. The values pass through the URL so the page stays shareable.

No JS? Fill the form by hand. The geolocation button needs JavaScript.